EW5673 Weather Reports


time (UTC)temp
C
wind
direction
speed
KPH
gust
KPH
rain 1hr
cm
rain 24hr
cm
rain mn
cm
humidity
%
barometer
mb
20260503050054 13 161 0.0 3.2 0.00 2.11 0.00 94 1016.5
20260503044554 13 0 0.0 3.2 0.00 2.16 0.00 94 1016.4
20260503043054 13 0 1.6 8.0 0.00 2.16 0.00 94 1016.4
20260503041552 13 165 3.2 8.0 0.00 2.16 0.00 94 1016.6
20260503034603 13 0 0.0 1.6 0.00 2.16 0.00 94 1017.2
20260503033057 13 0 0.0 4.8 0.00 2.16 0.00 94 1017.0
20260503031555 13 175 0.0 6.4 0.00 2.16 0.00 94 1017.1
20260503030054 13 0 0.0 6.4 0.00 2.16 0.00 94 1017.1
20260503024554 13 0 1.6 6.4 0.00 2.16 0.00 94 1017.2
20260503023051 14 0 0.0 3.2 0.00 2.16 0.00 94 1017.2
20260503021552 14 0 0.0 0.0 0.00 2.16 0.00 94 1017.4
20260503020049 14 0 0.0 3.2 0.00 2.16 0.00 94 1017.8
20260503014603 14 0 0.0 4.8 0.00 2.16 0.00 94 1017.9
20260503013050 13 106 0.0 6.4 0.00 2.16 0.00 94 1018.3
20260503011559 13 190 0.0 4.8 0.00 2.16 0.00 94 1018.5
20260503010052 13 0 0.0 6.4 0.00 2.16 0.00 94 1018.3
20260503004551 13 157 3.2 11.3 0.00 2.16 0.00 94 1018.2
20260503003108 13 175 0.0 8.0 0.00 2.16 0.00 93 1018.1
20260503001609 13 179 3.2 12.9 0.00 2.16 0.00 93 1018.4
20260503000053 14 138 1.6 8.0 0.00 2.16 0.00 94 1018.4
20260502234552 13 151 0.0 11.3 0.00 2.16 0.00 93 1018.6
20260502233051 14 174 3.2 9.7 0.00 2.16 0.00 93 1018.5
20260502231555 14 212 1.6 9.7 0.00 2.16 0.00 93 1018.6
20260502230050 14 150 1.6 6.4 0.00 2.16 0.00 93 1018.6
20260502224554 14 155 1.6 8.0 0.00 2.16 0.00 93 1018.7
20260502221552 14 0 0.0 8.0 0.03 2.16 0.00 93 1018.6
20260502220054 14 0 0.0 4.8 0.03 2.16 0.00 93 1018.6
20260502214558 14 0 0.0 1.6 0.03 2.16 2.16 93 1018.9
20260502213100 13 0 0.0 4.8 0.08 2.08 2.08 93 1019.2
20260502210104 14 0 0.0 4.8 0.05 1.78 1.78 92 1019.3
20260502204555 14 97 0.0 3.2 0.08 1.73 1.73 92 1019.1
20260502203049 13 0 0.0 0.0 0.41 1.73 1.73 91 1019.2
20260502201601 13 74 1.6 3.2 1.57 1.73 1.73 91 1019.1
20260502200050 13 0 0.0 6.4 1.60 1.70 1.70 90 1019.5
20260502194548 13 0 0.0 4.8 1.52 1.63 1.63 89 1020.0
20260502193052 14 0 3.2 41.8 1.19 1.30 1.30 85 1020.5
20260502191550 18 304 6.4 17.7 0.00 0.10 0.10 78 1019.4
20260502190049 20 329 1.6 6.4 0.00 0.08 0.08 72 1018.9
20260502184604 21 308 0.0 3.2 0.00 0.08 0.08 67 1019.1
20260502183102 22 0 0.0 0.0 0.00 0.08 0.08 61 1019.0
20260502181605 22 0 0.0 1.6 0.00 0.08 0.08 60 1018.7
20260502163058 25 164 3.2 8.0 0.00 0.08 0.08 53 1019.2
20260502161557 25 173 1.6 9.7 0.00 0.08 0.08 53 1019.6
20260502151604 25 327 0.0 6.4 0.00 0.08 0.08 53 1020.2
20260502150105 24 225 4.8 12.9 0.00 0.08 0.08 53 1020.7
20260502123101 22 0 1.6 9.7 0.00 0.08 0.08 62 1022.7
20260502121552 22 231 4.8 11.3 0.00 0.08 0.08 65 1023.0
20260502114553 21 173 4.8 11.3 0.00 0.08 0.08 67 1023.1
20260502113052 21 198 1.6 4.8 0.00 0.08 0.08 69 1023.4
20260502111556 21 226 4.8 11.3 0.00 0.08 0.08 69 1023.5
20260502110100 21 159 4.8 16.1 0.00 0.08 0.08 70 1023.5
20260502104559 21 231 4.8 12.9 0.00 0.08 0.08 68 1023.6
20260502103101 20 213 3.2 9.7 0.00 0.08 0.08 73 1023.6
20260502101634 20 237 4.8 11.3 0.00 0.08 0.08 72 1023.7
20260502100121 20 208 4.8 12.9 0.00 0.08 0.08 73 1023.8
20260502080108 16 221 1.6 8.0 0.00 0.08 0.08 86 1023.8
20260502070057 14 0 0.0 4.8 0.00 0.08 0.08 86 1023.7
20260502064558 14 0 3.2 6.4 0.00 0.08 0.08 88 1023.7
20260502063055 13 137 1.6 6.4 0.00 0.08 0.08 89 1023.5
20260502061554 12 180 1.6 8.0 0.00 0.08 0.08 90 1023.5
20260502060100 12 166 0.0 3.2 0.00 0.08 0.08 90 1023.4
20260502054604 12 205 1.6 4.8 0.00 0.08 0.08 89 1023.5
20260502053113 12 0 0.0 1.6 0.00 0.08 0.08 89 1023.0
20260502051551 12 0 0.0 1.6 0.00 0.08 0.08 88 1022.8